EW0150 Weather Reports


time (UTC)temp
C
wind
direction
speed
KPH
gust
KPH
rain 1hr
cm
rain 24hr
cm
rain mn
cm
humidity
%
barometer
mb
20260904112005 24 272 20.9 40.2 0.00 0.00 0.00 59 1014.4
20260904111004 24 239 19.3 35.4 0.00 0.00 0.00 59 1014.5
20260904110011 23 278 22.5 43.5 0.00 0.00 0.00 59 1014.6
20260904105004 24 238 22.5 37.0 0.00 0.00 0.00 59 1014.8
20260904104006 24 274 20.9 38.6 0.00 0.00 0.00 57 1014.8
20260904103005 23 289 24.1 43.5 0.00 0.00 0.00 58 1014.9
20260904102007 24 232 20.9 41.8 0.00 0.00 0.00 59 1015.1
20260904101005 25 260 16.1 33.8 0.00 0.00 0.00 57 1015.1
20260904100009 23 252 17.7 33.8 0.00 0.00 0.00 60 1015.3
20260904095004 24 257 17.7 32.2 0.00 0.00 0.00 59 1015.5
20260904094006 23 246 20.9 41.8 0.00 0.00 0.00 59 1015.6
20260904093004 23 215 17.7 29.0 0.00 0.00 0.00 61 1015.6
20260904092006 22 288 19.3 33.8 0.00 0.00 0.00 63 1015.8
20260904091004 22 213 16.1 29.0 0.00 0.00 0.00 63 1015.9
20260904090006 22 258 14.5 32.2 0.00 0.00 0.00 64 1016.1
20260904085007 21 207 17.7 27.4 0.00 0.00 0.00 65 1016.2
20260904084007 21 232 14.5 22.5 0.00 0.00 0.00 67 1016.0
20260904083004 20 238 14.5 27.4 0.00 0.00 0.00 69 1016.3
20260904082006 20 223 16.1 24.1 0.00 0.00 0.00 70 1016.4
20260904081004 20 240 11.3 24.1 0.00 0.00 0.00 71 1016.5
20260904080006 19 252 11.3 22.5 0.00 0.00 0.00 72 1016.6
20260904075006 19 206 9.7 17.7 0.00 0.00 0.00 73 1016.7
20260904073006 18 231 9.7 16.1 0.00 0.00 0.00 74 1016.6
20260904072004 18 218 11.3 20.9 0.00 0.00 0.00 74 1016.7
20260904070006 18 223 11.3 19.3 0.00 0.00 0.00 73 1016.6
20260904065005 18 192 9.7 16.1 0.00 0.00 0.00 75 1016.8
20260904064007 18 216 9.7 20.9 0.00 0.00 0.00 74 1016.7
20260904063005 18 234 8.0 14.5 0.00 0.00 0.00 75 1016.7
20260904062008 17 225 8.0 16.1 0.00 0.00 0.00 76 1016.6
20260904061005 17 198 8.0 14.5 0.00 0.00 0.00 77 1016.6
20260904060008 17 212 8.0 14.5 0.00 0.00 0.00 76 1016.7
20260904054005 17 215 6.4 11.3 0.00 0.00 0.00 77 1016.4
20260904053008 17 235 6.4 11.3 0.00 0.00 0.00 77 1016.5
20260904052005 17 212 8.0 11.3 0.00 0.00 0.00 76 1016.3
20260904051007 17 192 8.0 12.9 0.00 0.00 0.00 77 1016.5
20260904050008 17 192 6.4 11.3 0.00 0.00 0.00 77 1016.4
20260904045006 17 205 6.4 9.7 0.00 0.00 0.00 77 1016.5
20260904044007 17 212 6.4 9.7 0.00 0.00 0.00 77 1016.4
20260904043007 17 237 6.4 12.9 0.00 0.00 0.00 77 1016.7
20260904041008 16 211 6.4 11.3 0.00 0.00 0.00 77 1016.4
20260904035006 17 233 6.4 12.9 0.00 0.00 0.00 76 1016.6
20260904034008 17 242 6.4 11.3 0.00 0.00 0.00 77 1016.6
20260904033005 16 223 6.4 12.9 0.00 0.00 0.00 77 1016.6
20260904031005 17 264 6.4 11.3 0.00 0.00 0.00 76 1016.7
20260904030010 17 245 4.8 9.7 0.00 0.00 0.00 76 1016.6
20260904025005 16 215 4.8 9.7 0.00 0.00 0.00 76 1016.5
20260904024005 17 204 6.4 9.7 0.00 0.00 0.00 75 1016.5
20260904023005 17 228 6.4 12.9 0.00 0.00 0.00 74 1016.6
20260904022005 17 246 6.4 12.9 0.00 0.00 0.00 74 1016.7
20260904021008 17 237 6.4 12.9 0.00 0.00 0.00 74 1016.6
20260904020008 17 252 6.4 12.9 0.00 0.00 0.00 74 1016.6
20260904015007 17 274 6.4 14.5 0.00 0.00 0.00 74 1016.7
20260904014005 16 232 4.8 8.0 0.00 0.00 0.00 75 1016.7
20260904012005 16 207 6.4 9.7 0.00 0.00 0.00 75 1016.7
20260904011007 16 215 4.8 8.0 0.00 0.00 0.00 74 1016.7
20260904010007 16 226 6.4 11.3 0.00 0.00 0.00 73 1016.7
20260904005005 16 246 6.4 11.3 0.00 0.00 0.00 73 1016.7
20260904004007 17 261 6.4 12.9 0.00 0.00 0.00 72 1016.8
20260904002007 17 200 6.4 9.7 0.00 0.00 0.00 71 1016.7
20260904001005 17 229 6.4 11.3 0.00 0.00 0.00 71 1016.9
20260904000010 17 228 6.4 9.7 0.00 0.00 0.00 71 1016.8
20260903235006 17 179 6.4 11.3 0.00 0.00 0.00 70 1016.7
20260903234006 17 201 6.4 9.7 0.00 0.00 0.00 71 1016.9
20260903233006 17 218 6.4 11.3 0.00 0.00 0.00 70 1016.9
20260903232007 17 187 6.4 11.3 0.00 0.00 0.00 69 1017.0
20260903231005 17 211 6.4 12.9 0.00 0.00 0.00 69 1017.1
20260903225004 17 234 6.4 12.9 0.00 0.00 0.00 68 1017.2
20260903224003 17 230 4.8 9.7 0.00 0.00 0.00 69 1017.2
20260903223004 17 199 6.4 11.3 0.00 0.00 0.00 69 1017.3
20260903222004 17 232 6.4 11.3 0.00 0.00 0.00 69 1017.3
20260903221003 17 218 6.4 11.3 0.00 0.00 0.00 69 1017.2
20260903220024 17 225 6.4 11.3 0.00 0.00 0.00 70 1017.3
20260903215004 17 216 4.8 9.7 0.00 0.00 0.00 71 1017.4
20260903214006 17 246 4.8 8.0 0.00 0.00 0.00 72 1017.4
20260903212006 16 220 4.8 11.3 0.00 0.00 0.00 74 1017.2
20260903210008 15 233 4.8 6.4 0.00 0.00 0.00 81 1017.4
20260903204006 14 201 4.8 6.4 0.00 0.00 0.00 82 1017.2
20260903202006 14 201 3.2 6.4 0.00 0.00 0.00 84 1017.4
20260903201004 14 201 3.2 6.4 0.00 0.00 0.00 84 1017.3
20260903200006 15 201 1.6 3.2 0.00 0.00 0.00 83 1017.4
20260903195005 15 201 1.6 4.8 0.00 0.00 0.00 83 1017.5
20260903194006 15 201 1.6 3.2 0.00 0.00 0.00 80 1017.5
20260903192005 15 201 1.6 4.8 0.00 0.00 0.00 80 1017.4
20260903191004 15 201 3.2 4.8 0.00 0.00 0.00 80 1017.5
20260903190006 16 201 3.2 4.8 0.00 0.00 0.00 80 1017.5
20260903184003 16 202 1.6 4.8 0.00 0.00 0.00 79 1017.7
20260903183006 17 320 0.0 1.6 0.00 0.00 0.00 77 1017.7
20260903182003 17 320 1.6 3.2 0.00 0.00 0.00 73 1017.7
20260903181004 17 320 0.0 1.6 0.00 0.00 0.00 72 1017.7
20260903175004 18 320 0.0 1.6 0.00 0.00 0.00 70 1017.5
20260903174006 18 320 1.6 3.2 0.00 0.00 0.00 68 1017.4
20260903173006 20 320 1.6 4.8 0.00 0.00 0.00 61 1017.4
20260903172004 20 320 1.6 3.2 0.00 0.00 0.00 61 1017.5
20260903171004 20 320 3.2 6.4 0.00 0.00 0.00 61 1017.5
20260903170005 20 309 3.2 6.4 0.00 0.00 0.00 60 1017.5
20260903165005 21 266 3.2 6.4 0.00 0.00 0.00 60 1017.3
20260903163005 21 325 6.4 11.3 0.00 0.00 0.00 59 1017.5
20260903162003 21 304 6.4 12.9 0.00 0.00 0.00 59 1017.3
20260903161003 21 302 8.0 16.1 0.00 0.00 0.00 57 1017.3
20260903160010 22 276 8.0 14.5 0.00 0.00 0.00 57 1017.4
20260903155005 22 314 6.4 11.3 0.00 0.00 0.00 55 1017.3
20260903154007 22 270 8.0 14.5 0.00 0.00 0.00 56 1017.3
20260903153004 21 240 9.7 17.7 0.00 0.00 0.00 57 1017.4
20260903151006 22 264 9.7 16.1 0.00 0.00 0.00 55 1017.5
20260903150006 22 263 8.0 16.1 0.00 0.00 0.00 55 1017.5
20260903145005 22 269 8.0 16.1 0.00 0.00 0.00 57 1017.7
20260903144005 22 270 8.0 16.1 0.00 0.00 0.00 55 1017.7
20260903143005 22 304 9.7 17.7 0.00 0.00 0.00 56 1017.7
20260903142004 22 296 12.9 20.9 0.00 0.00 0.00 54 1017.8
20260903141006 22 265 12.9 17.7 0.00 0.00 0.00 55 1017.9
20260903135005 22 306 9.7 17.7 0.00 0.00 0.00 54 1017.8
20260903134005 22 275 11.3 19.3 0.00 0.00 0.00 57 1017.9
20260903133007 22 303 8.0 16.1 0.00 0.00 0.00 56 1018.0
20260903132005 22 294 6.4 16.1 0.00 0.00 0.00 55 1017.9
20260903131006 22 285 4.8 12.9 0.00 0.00 0.00 55 1017.9
20260903125004 22 307 8.0 16.1 0.00 0.00 0.00 56 1018.0
20260903124007 22 291 8.0 17.7 0.00 0.00 0.00 55 1018.1
20260903123004 22 294 8.0 16.1 0.00 0.00 0.00 56 1018.2
20260903122007 22 292 6.4 14.5 0.00 0.00 0.00 56 1018.2
20260903121004 22 283 6.4 14.5 0.00 0.00 0.00 56 1018.3
20260903120010 22 284 9.7 20.9 0.00 0.00 0.00 57 1018.4
20260903115007 22 302 9.7 17.7 0.00 0.00 0.00 59 1018.5